Regional Weather Roundup
Issued by NWS San Angelo, TX

Home | Current Version | Previous Version | Text Only | Print | Product List | Glossary On
Versions: 1 2 3 4 5 6 7 8 9 10 11 12 13 14 15 16 17 18 19 20 21 22 23 24 25 26 27 28 29 30 31 32 33 34 35 36 37 38 39 40 41 42 43 44 45 46 47 48 49 50
000
ASUS44 KSJT 271110
RWRSJT
WEST CENTRAL TEXAS REGIONAL WEATHER ROUNDUP
NATIONAL WEATHER SERVICE SAN ANGELO TX
600 AM CDT SAT MAY 27 2017

NOTE: "FAIR" INDICATES FEW OR NO CLOUDS BELOW 12,000 FEET WITH NO
SIGNIFICANT WEATHER AND/OR OBSTRUCTIONS TO VISIBILITY.

TXZ049-054-064>066-071>073-076>078-098-099-113-114-127-128-139-140-
154-155-168>170-271200
...LOCATIONS ACROSS WEST CENTRAL TEXAS...

CITY           SKY/WX    TMP DP  RH WIND       PRES   REMARKS
SAN ANGELO     MOCLDY    74  69  85 S9        29.85S
ABILENE        CLEAR     77  70  79 S20       29.83R
DYESS AFB      CLEAR     76  70  83 S10       29.80S
JUNCTION       CLOUDY    80  74  81 S3        29.88R
SWEETWATER     CLEAR     74  68  82 S12       29.87R
BROWNWOOD      CLOUDY    75  73  94 SE6       29.86R
COLEMAN        PTSUNNY   76  70  84 S8        29.86S
SONORA         CLOUDY    77  73  88 S7        29.93S
OZONA            N/A     72  70  94 S7        29.92S
BRADY          NOT AVBL
$$

TEXAS PANHANDLE/OKLAHOMA PANHANDLE

CITY           SKY/WX    TMP DP  RH WIND       PRES   REMARKS
AMARILLO       CLEAR     58  30  34 SW9       29.85R
BORGER         CLEAR     67  33  28 SW12      29.79R
CANADIAN       CLEAR     63  60  93 SW6       29.74S
DALHART        CLEAR     51  38  60 NW9       29.85R
DUMAS          SUNNY     54  37  52 W13       29.83R
GUYMON         NOT AVBL
HEREFORD       SUNNY     55  32  41 W12       29.89R
PAMPA          SUNNY     60  47  62 SW7       29.80S
PERRYTON       CLEAR     63  60  88 S8        29.74R
$$

SOUTHERN PANHANDLE/SOUTH PLAINS/ROLLING PLAINS

CITY           SKY/WX    TMP DP  RH WIND       PRES   REMARKS
LUBBOCK        PTCLDY    73  38  27 SW15      29.87R
SNYDER         CLEAR     67  61  80 CALM      29.87R
CHILDRESS      CLEAR     65  47  52 SW8       29.77R
SEMINOLE       SUNNY     68  52  56 SW8       29.92R
$$

PERMIAN BASIN

CITY           SKY/WX    TMP DP  RH WIND       PRES   REMARKS
MIDLAND        CLEAR     76  64  66 S17       29.89S
ODESSA         CLEAR     73  65  75 S8        29.90S
WINK             N/A     65  41  41 SW6       29.88R
$$

FAR WEST/SOUTHWEST MOUNTAINS/TRANS PECOS

CITY           SKY/WX    TMP DP  RH WIND       PRES   REMARKS
ALPINE         SUNNY     65  39  38 SW8       30.09S
DRYDEN           N/A     71  69  93 N7        29.87R
EL PASO        CLEAR     73  27  18 SW8       30.01R
FORT STOCKTON    N/A     76  40  27 W12       29.91R
GUADALUPE PASS CLEAR     67  27  22 W26G33    30.07S
MARFA          CLEAR     56  32  40 NE3       30.09R
PECOS          SUNNY     67  33  27 SW6       29.90R
$$

DALLAS/FORT WORTH METROPLEX

CITY           SKY/WX    TMP DP  RH WIND       PRES   REMARKS
DFW AIRPORT    CLOUDY    81  75  82 S16       29.80R
FTW MEACHAM    CLOUDY    80  75  84 S12       29.81R
DAL-EXECUTIVE  CLOUDY    78  75  90 S7        29.82R
GRAND PRAIRIE  PTCLDY    79  72  80 S12G18    29.83S
ADDISON        CLOUDY    79  73  83 S12       29.83F
MESQUITE       CLOUDY    77  74  90 S9        29.84R
LANCASTER      PTSUNNY   77  73  87 S10       29.84S
$$

NORTH CENTRAL TEXAS

CITY           SKY/WX    TMP DP  RH WIND       PRES   REMARKS
SHRMAN/DENISON MOSUNNY   76  73  90 CALM      29.82S
GAINESVILLE    MOCLDY    75  73  92 S9G16     29.81R
BRIDGEPORT     SUNNY     75  72  89 S7        29.81R
DENTON         CLOUDY    78  75  90 S10       29.80S
WAXAHACHIE     CLOUDY    77  76  97 S8        29.85R
GRANBURY       CLOUDY    80  73  80 SE9       29.82S
$$

WESTERN NORTH TEXAS

CITY           SKY/WX    TMP DP  RH WIND       PRES   REMARKS
WICHITA FALLS  CLEAR     69  67  93 SE5       29.75R
VERNON         SUNNY     70  66  88 S9        29.75R
BRECKENRIDGE   SUNNY     76  70  80 S12       29.80R
COMANCHE       MOCLDY    76  76 100 S9        29.85R
$$

CENTRAL AND SOUTH CENTRAL TEXAS

CITY           SKY/WX    TMP DP  RH WIND       PRES   REMARKS
AUSTIN/BERGSTM CLOUDY    79  75  87 S8        29.85S
WACO           CLOUDY    77  76  96 S10       29.85R
HILLSBORO      CLOUDY    79  75  89 S12       29.85R
TEMPLE         CLOUDY    76  76 100 S15       29.86R
KILLEEN-GRAY   CLOUDY    76  75  97 S9        29.85S FOG
FORT HOOD      CLOUDY    75  74  97 S9        29.83S
GEORGETOWN     CLOUDY    77  73  88 S10       29.86S
LAGO VISTA     RAIN      76  75  96 S12       29.89R
SAN MARCOS       N/A    N/A N/A N/A MISG        N/A
NEW BRAUNFELS  CLOUDY    79  75  87 S8        29.86S FOG
RANDOLPH AFB   MOCLDY    79  79 100 S9        29.87R
SAN ANTONIO    CLOUDY    78  74  87 S8G18     29.87S
STINSON        CLOUDY    80  74  81 SE8       29.84F HAZE
PLEASANTON     NOT AVBL
LA GRANGE      CLOUDY    80  77  92 S9        29.86R FOG
GIDDINGS       CLOUDY    78  74  87 S7G17     29.88R FOG
$$

EAST TEXAS

CITY           SKY/WX    TMP DP  RH WIND       PRES   REMARKS
PARIS          MOCLDY    75  72  88 S9        29.85S
CLARKSVILLE    NOT AVBL
TYLER          CLOUDY    77  75  93 S10       29.87R
LONGVIEW       CLOUDY    77  75  93 S8        29.87R
PALESTINE      CLOUDY    76  75  96 S6        29.89R FOG
NACOGDOCHES    CLOUDY    77  73  88 S7        29.88S
$$

TEXAS HILL COUNTRY AND EDWARDS PLATEAU

CITY           SKY/WX    TMP DP  RH WIND       PRES   REMARKS
LLANO          CLOUDY    81  75  83 S6        29.89S
HORSESHOE BAY  NOT AVBL
KERRVILLE      CLOUDY    76  76  97 S9        29.90S FOG
FREDERICKSBRG  CLOUDY    75  73  92 S7        29.89S FOG
ROCKSPRINGS    FOG       75  73  94 S12       29.93S VSB 3/4
HONDO          CLOUDY    79  76  90 S7        29.86S
UVALDE         CLOUDY    78  75  91 SE3       29.86S FOG
DEL RIO        CLOUDY    78  76  93 E10       29.82R
$$

SOUTHEAST TEXAS

CITY           SKY/WX    TMP DP  RH WIND       PRES   REMARKS
COLLEGE STN    CLOUDY    78  75  90 S9        29.88R
CALDWELL       NOT AVBL
CROCKETT       CLOUDY    77  73  88 CALM      29.92R
BRENHAM        CLOUDY    80  76  85 S7        29.89R
HUNTSVILLE     CLOUDY    80  73  79 S8        29.89R
CONROE         CLOUDY    79  75  87 S7        29.90R
HOUSTON BUSH   CLOUDY    80  75  84 S9        29.90R FOG
HOUSTON HOBBY  CLOUDY    80  75  84 S8        29.90R
PERLAND        CLOUDY    82  74  76 S10       29.91R
WHARTON        CLOUDY    79  74  84 S8        29.90S
$$

THE UPPER TEXAS COAST

CITY           SKY/WX    TMP DP  RH WIND       PRES   REMARKS
ORANGE         CLOUDY    79  77  92 S7        29.95R
PORT ARTHUR    CLOUDY    79  75  87 S9        29.92R
GALVESTON      CLOUDY    82  77  84 S20       29.92R
ANGLETON       CLOUDY    81  77  88 S14       29.90R
BAY CITY       CLOUDY    80  76  89 S8        29.90S
$$

TEXAS COASTAL BEND, RIO GRANDE PLAINS DEEP SOUTH TEXAS

CITY           SKY/WX    TMP DP  RH WIND       PRES   REMARKS
VICTORIA       CLOUDY    80  75  84 S9        29.89S
BEEVILLE       CLOUDY   N/A N/A N/A SE7       29.86S HAZE
ROCKPORT       CLOUDY    81  76  84 S8        29.87R
PORT ARANSAS   CLOUDY    80  76  87 S13G21    29.87S FOG
PORT LAVACA    CLOUDY    79  77  95 CALM      29.89S
CORPUS CHRISTI CLOUDY    80  77  90 S13       29.85S FOG
KINGSVILLE NAS CLOUDY    81  78  91 SE12G23   29.84F
COTULLA        CLEAR     79  74  84 SE9       29.83R
LAREDO         CLEAR     80  75  84 S13       29.82R HAZE
BROWNSVILLE    CLOUDY    81  78  91 SE12      29.86S
PORT ISABEL    MOCLDY    81  78  91 S14       29.85S FOG
HEBBRONVILLE   CLOUDY    77  73  89 S3        29.85S FOG
MCALLEN        CLOUDY    82  77  84 SE12      29.85R HAZE
WESLACO        CLOUDY    79  76  91 S9        29.84S FOG
FALFURRIAS     CLOUDY    80  76  88 SE8       29.83S
EDINBURG       CLOUDY    82  76  83 SE9       29.84S HAZE
$$




USA.gov is the U.S. government's official web portal to all federal, state and local government web resources and services.